This demonstration page uses our WeatherBlox Daily Observations layout. Learn more.

38.89511, -77.03637

Hourly Observations for April 6, 2015

Temp ( °F °C ) Dew Point ( °F °C ) Humidity (%) Winds ( mph kmh ) Pressure ( in mb ) Visibility ( mi km ) Precip ( " mm )
12:52 am 00:52 Mostly Cloudy 52 11 36 2 54 54 SSW 8 13 30.24 1024 10 16.09344 0 0
1:52 am 01:52 Mostly Cloudy 54 12 28 -2 38 38 Calm 30.27 1025 10 16.09344 0 0
2:52 am 02:52 Mostly Cloudy 54 12 30 -1 41 41 S 9 15 30.27 1025 10 16.09344 0 0
3:52 am 03:52 Mostly Cloudy 52 11 32 0 47 47 SSW 7 11 30.24 1024 10 16.09344 0 0
4:52 am 04:52 Mostly Cloudy 50 10 30 -1 47 47 SSW 5 7 30.27 1025 10 16.09344 0 0
5:52 am 05:52 Partly Cloudy 50 10 30 -1 47 47 SSW 3 6 30.27 1025 10 16.09344 0 0
6:52 am 06:52 Partly Cloudy 48 9 34 1 58 58 SSW 6 9 30.27 1025 10 16.09344 0 0
7:52 am 07:52 Mostly Cloudy 52 11 34 1 50 50 Calm 30.3 1026 10 16.09344 0 0
8:52 am 08:52 Mostly Cloudy 55 13 36 2 47 47 S 6 9 30.27 1025 10 16.09344 0 0
9:52 am 09:52 Partly Cloudy 59 15 39 4 48 48 S 9 15 30.27 1025 10 16.09344 0 0
10:52 am 10:52 Mostly Sunny 64 18 37 3 37 37 SSE 9 15 30.27 1025 10 16.09344 0 0
11:52 am 11:52 Mostly Sunny 68 20 37 3 33 33 S 14 22 30.27 1025 10 16.09344 0 0
12:52 pm 12:52 Mostly Sunny 72 22 37 3 29 29 SSE 14 22 30.24 1024 10 16.09344 0 0
1:52 pm 13:52 Mostly Sunny 77 25 32 0 19 19 SSW 21 33 30.21 1023 10 16.09344 0 0
2:52 pm 14:52 Partly Cloudy 77 25 39 4 26 26 S 13 20 30.18 1022 10 16.09344 0 0
3:52 pm 15:52 Partly Cloudy 75 24 45 7 34 34 S 18 30 30.15 1021 10 16.09344 0 0
4:52 pm 16:52 Partly Cloudy 77 25 45 7 32 32 SSW 18 30 30.12 1020 10 16.09344 0 0
5:52 pm 17:52 Mostly Cloudy 75 24 46 8 36 36 S 17 28 30.12 1020 10 16.09344 0 0
6:52 pm 18:52 Mostly Cloudy 73 23 46 8 38 38 S 16 26 30.12 1020 10 16.09344 0 0
7:52 pm 19:52 Mostly Cloudy 73 23 46 8 38 38 SSW 14 22 30.12 1020 10 16.09344 0 0
8:52 pm 20:52 Mostly Cloudy 66 19 48 9 52 52 S 12 19 30.12 1020 10 16.09344 0 0
9:52 pm 21:52 Partly Cloudy 64 18 50 10 60 60 S 12 19 30.12 1020 10 16.09344 0 0
10:52 pm 22:52 Mostly Cloudy 64 18 50 10 60 60 S 13 20 30.12 1020 10 16.09344 0 0
11:52 pm 23:52 Mostly Cloudy 66 19 50 10 56 56 S 12 19 30.15 1021 10 16.09344 0 0

Powered by AerisWeather